Regional Weather Roundup
Issued by NWS Newport/Morehead, NC

Current Version | Previous Version | Text Only | Print | Product List | Glossary Off
Versions: 1 2 3 4 5 6 7 8 9 10 11 12 13 14 15 16 17 18 19 20 21 22 23 24 25 26 27 28 29 30 31 32 33 34 35 36 37 38 39 40 41 42 43 44 45 46 47 48 49 50
000 ASUS42 KMHX 261910 RWRMHX WEATHER ROUNDUP FOR EASTERN NORTH CAROLINA NATIONAL WEATHER SERVICE NEWPORT/MOREHEAD CITY NC 200 PM EST MON JAN 26 2015 NOTE: "FAIR" INDICATES FEW OR NO CLOUDS BELOW 12,000 FEET WITH NO SIGNIFICANT WEATHER AND/OR OBSTRUCTIONS TO VISIBILITY NCZ015>017-031-032-045>047-102-103-262000- NORTH COAST CITY SKY/WX TMP DP RH WIND PRES REMARKS EDENTON CLOUDY 51 45 80 N5 29.55S ELIZABETH CITY CLOUDY 52 44 74 N6 29.55F KITTY HAWK CLOUDY 49 47 90 NW3 29.52S MANTEO CLOUDY 48 45 87 N7 29.52F $$ NCZ045>047-081-094-103-104-262000- CENTRAL COAST CITY SKY/WX TMP DP RH WIND PRES REMARKS FRISCO CLOUDY 51 43 74 CALM 29.50F SWANQUARTER NOT AVBL $$ NCZ095-097-098-100-101-262000- SOUTHERN COAST CITY SKY/WX TMP DP RH WIND PRES REMARKS BEAUFORT CLOUDY 49 46 90 NW6 29.54F CEDAR ISLAND NOT AVBL JACKSONVILLE MOSUNNY 55 42 61 NW9 29.54F PINEY ISLAND N/A N/A N/A N/A MISG 29.52F WILMINGTON MOSUNNY 56 43 61 W10G22 29.55F $$ NCZ011>013-027>030-043-044-078>080-089-090>093-098-262000- COASTAL PLAIN CITY SKY/WX TMP DP RH WIND PRES REMARKS AHOSKIE PTSUNNY 51 40 65 N7 29.56F CLINTON CLOUDY 48 43 80 NW7 29.59S ELIZABETHTOWN PTSUNNY 53 41 63 N3 29.57F GOLDSBORO LGT RAIN 52 49 91 NW2 29.55F GREENVILLE MOSUNNY 54 41 62 NE6 29.58F HAVELOCK CLOUDY 51 41 68 NW6 29.54F KENANSVILLE PTSUNNY 52 39 61 N6 29.57F KINSTON MOSUNNY 54 39 58 W5 29.56F NEW BERN N/A 53 40 61 CALM 29.55F RICHLANDS MOSUNNY 54 39 58 W7 29.56F ROCKY MOUNT MOSUNNY 53 41 63 N7 29.56F WASHINGTON PTSUNNY 49 42 77 CALM 29.54F WHITEVILLE CLOUDY 56 40 55 CALM 29.56F $$ AMZ130-135-150-152-154-156-158-170-250-252-270-ANZ085-086-088-633-658-670-262000- MARINE OBSERVATIONS STATION/POSITION TIME TEMP WIND PRES WAVE SWELL AIR SEA DIR/SP/G HT/PER HT/PER (UTC) (F) (DEG/KT/KT) (MB) (FT/S) (FT/S) CHESAPEAKE LIGHT 1800 45 360/ 15/ 16 1001.9 64 E VA BEACH 1900 55 52 80/ 12/ 14 998.0 3/ 8 2/ 8 DUCK 1900 44 44 350/ 12/ 13 999.0 2 E DUCK 1900 44 N/A 2/ 9 10 NE DUCK 1900 45 N/A 2/ 9 OREGON INLET 1900 49 47 300/ 5/ 7 999.7 13E OREGON INLT 1900 47 N/A 2/ 9 HATTERAS CG 1900 51 53 10/ 3/ 4 999.0 DIAMOND BUOY 1900 58 71 340/ 6/ 8 998.5 3/ 8 3/ 8 17 S OCRACOKE NOT AVBL CAPE LOOKOUT 1800 50 350/ 3/ 3 1000.5 BEAUFORT LAB 1900 49 50 330/ 3/ 5 998.9 27 SE WRIGHTSVLE NOT AVBL 5 SE WRIGHTSVLE 1800 53 51 310/ 6/ 6 1001.1 225 S CAPE HAT 1755 61 72 270/ 27/ 35 1001.6 11/ 8 41 SE CHARLESTON 1900 56 69 270/ 23/ 29 1002.3 5/ 7 2/10 $$

USA.gov is the U.S. government's official web portal to all federal, state and local government web resources and services.